Yuma MCAS, AZ

11:05 AM MST on September 19, 2017 (GMT -0700)
Yuma Marine Corps Air Station

Weather History for KNYL - February, 2013

Change the Weather History Date:

Tuesday, February 19, 2013

  Actual Average Record
Temperature  
Mean Temperature 57 °F 63 °F  
Max Temperature 68 °F 75 °F 92 °F (1981)
Min Temperature 46 °F 51 °F 32 °F (1955)
Degree Days  
Heating Degree Days 8 4  
Month to date heating degree days 94 86  
Since 1 July heating degree days 615 594  
Cooling Degree Days 0 1  
Month to date cooling degree days 8 18  
Year to date cooling degree days 11 24  
Growing Degree Days 6 (Base 50)    
Moisture  
Dew Point 36 °F    
Average Humidity 56    
Maximum Humidity 86    
Minimum Humidity 26    
Precipitation  
Precipitation 0.00 in 0.01 in 0.54 in (1993)
Month to date precipitation T 0.26  
Year to date precipitation 1.02 0.63  
Sea Level Pressure  
Sea Level Pressure 29.80 in    
Wind  
Wind Speed 8 mph (West)    
Max Wind Speed 18 mph    
Max Gust Speed 23 mph    
Visibility 10 miles    
Events      
T = Trace of Precipitation, MM = Missing Value Source: NWS Daily Summary

Daily Weather History Graph

Daily Weather History Graph

Search for Another Location

Airport or City:

Trip Planner

Search our weather history database for the weather conditions in past years. The results will help you decide how hot, cold, wet, or windy it might be!

Date:

Astronomy

Feb. 19, 2013 Rise Set
Actual Time 7:17 AM MST 6:27 PM MST
Civil Twilight 6:52 AM MST 6:52 PM MST
Nautical Twilight 6:23 AM MST 7:21 PM MST
Astronomical Twilight 5:54 AM MST 7:50 PM MST
Moon 1:12 PM MST 2:42 AM MST
Length of Visible Light 12h 00m
Length of Day
11h 10m
Waxing Gibbous, 68% of the Moon is Illuminated
Feb 19
Waxing Gibbous
Feb 25
Full
Mar 4
Last Quarter
Mar 11
New
Mar 19
First Quarter

Hourly Weather History & Observations

Time (MST) Temp. Dew Point Humidity Pressure Visibility Wind Dir Wind Speed Gust Speed Precip Events Conditions
12:55 AM 53.1 °F 32.0 °F 45% 29.87 in 10.0 mi Calm Calm - N/A   Mostly Cloudy
1:55 AM 54.0 °F 37.0 °F 53% 29.86 in 10.0 mi Calm Calm - N/A   Mostly Cloudy
2:55 AM 51.1 °F 42.1 °F 71% 29.86 in 10.0 mi SSW 4.6 mph - N/A   Mostly Cloudy
3:55 AM 51.1 °F 45.0 °F 80% 29.84 in 10.0 mi SSW 5.8 mph - N/A   Mostly Cloudy
4:55 AM 48.9 °F 45.0 °F 86% 29.82 in 10.0 mi South 3.5 mph - N/A   Scattered Clouds
5:55 AM 48.0 °F 44.1 °F 86% 29.83 in 10.0 mi SE 3.5 mph - N/A   Partly Cloudy
6:55 AM 46.9 °F 43.0 °F 86% 29.84 in 10.0 mi Calm Calm - N/A   Partly Cloudy
7:55 AM 51.1 °F 43.0 °F 74% 29.85 in 10.0 mi NW 9.2 mph - N/A   Partly Cloudy
8:55 AM 55.9 °F 35.1 °F 45% 29.86 in 10.0 mi NW 6.9 mph - N/A   Partly Cloudy
9:55 AM 57.9 °F 32.0 °F 37% 29.85 in 10.0 mi NW 16.1 mph - N/A   Partly Cloudy
10:55 AM 61.0 °F 32.0 °F 34% 29.85 in 10.0 mi WNW 10.4 mph - N/A   Scattered Clouds
11:55 AM 64.0 °F 32.0 °F 30% 29.83 in 10.0 mi WNW 16.1 mph 23.0 mph N/A   Scattered Clouds
12:55 PM 64.0 °F 30.9 °F 29% 29.81 in 10.0 mi WNW 12.7 mph 20.7 mph N/A   Mostly Cloudy
1:55 PM 66.9 °F 32.0 °F 27% 29.78 in 10.0 mi NW 9.2 mph - N/A   Mostly Cloudy
2:55 PM 66.9 °F 30.9 °F 26% 29.75 in 10.0 mi WSW 10.4 mph 17.3 mph N/A   Mostly Cloudy
3:55 PM 66.0 °F 34.0 °F 30% 29.73 in 10.0 mi West 11.5 mph - N/A   Mostly Cloudy
5:55 PM 61.0 °F 33.1 °F 35% 29.72 in 10.0 mi WNW 10.4 mph - N/A   Mostly Cloudy
6:55 PM 60.1 °F 34.0 °F 38% 29.72 in 10.0 mi WNW 8.1 mph - N/A   Mostly Cloudy
7:20 PM - - N/A% - - North - - N/A   Unknown
7:55 PM 59.0 °F 34.0 °F 39% 29.73 in 10.0 mi WNW 9.2 mph - N/A   Overcast
8:55 PM 55.9 °F 37.0 °F 49% 29.72 in 10.0 mi NW 9.2 mph - N/A   Mostly Cloudy
9:00 PM - - N/A% - - North - - N/A   Unknown
9:55 PM 54.0 °F 36.0 °F 51% 29.73 in 10.0 mi WNW 9.2 mph - N/A   Mostly Cloudy
10:55 PM 54.0 °F 35.1 °F 49% 29.73 in 10.0 mi SSW 4.6 mph - N/A   Mostly Cloudy
11:55 PM 53.1 °F 34.0 °F 48% 29.73 in 10.0 mi WSW 3.5 mph - N/A   Mostly Cloudy